#timestamp,LO_Frequency,Hit,StdDev 
1540875615.2,286047006.7,N
1540875635.0,286047007.2,N
1540875636.0,286047007.2,N
1540875655.8,286047003.3,N
1540875675.6,286047007.6,N
1540875695.5,286046999.6,N
1540875715.3,286046994.2,N
1540875735.1,286046991.4,N
1540875755.9,286046988.0,N
1540875775.7,286046982.7,N
1540875795.6,286046984.8,N
1540875815.4,286046986.4,N
1540875835.2,286046984.9,N
1540875855.1,286046985.5,N
1540875856.0,286046985.5,N
1540875875.8,286046989.1,N
1540875895.6,286046992.7,N
1540875915.5,286046993.8,N
1540875935.3,286046995.8,N
1540875955.1,286046996.9,N
1540875975.9,286047004.0,N
1540875995.7,286046998.3,N
1540876015.6,286046999.6,N
1540876035.4,286046997.9,N
1540876055.2,286046998.6,N
1540876075.1,286047000.8,N
1540876076.0,286047000.8,N
1540876095.8,286046997.6,N
1540876115.7,286046998.1,N
1540876135.5,286047005.9,N
1540876155.3,286047007.2,N
1540876175.2,286047007.8,N
1540876195.9,286047014.0,N
1540876215.7,286047018.7,N
1540876235.6,286047015.0,N
1540876255.4,286047012.9,N
1540876275.3,286047015.6,N
1540876295.1,286047016.5,N
1540876296.0,286047016.5,N
1540876315.8,286047021.8,N
1540876335.7,286047023.0,N
1540876355.5,286047021.8,N
1540876375.3,286047019.9,N
1540876395.2,286047019.2,N
1540876415.0,286047020.2,N
1540876415.9,286047020.2,N
1540876435.8,286047023.4,N
1540876455.6,286047022.5,N
1540876475.4,286047026.7,N
1540876495.3,286047030.2,Y
1540876515.1,286047019.9,P
1540876535.9,286047014.8,P
1540876555.7,286047006.3,N
1540876575.5,286047007.1,N
1540876595.4,286047007.5,N
1540876615.2,286047008.0,N
1540876635.0,286047007.7,N
1540876636.0,286047007.7,N
1540876655.8,286047013.9,Y
1540876675.6,286046998.3,P
1540876695.5,286046996.9,N
1540876715.3,286046995.3,N
1540876735.1,286046999.5,N
1540876755.9,286046992.5,N
1540876775.7,286046989.1,N
1540876795.6,286046986.5,N
1540876815.4,286046983.8,N
1540876835.2,286046981.8,N
1540876855.1,286046976.0,N
1540876856.0,286046976.0,N
1540876875.8,286046972.7,N
1540876895.6,286046971.4,N
1540876915.5,286046971.7,N
1540876935.3,286046972.7,N
1540876955.1,286046971.8,N
1540876975.9,286046967.5,N
1540876995.7,286046965.0,N
1540877015.6,286046967.3,N
1540877035.4,286046969.0,N
1540877055.2,286046965.6,N
1540877075.1,286046958.2,Y
1540877076.0,286046958.2,P
1540877095.8,286046973.8,N
1540877115.7,286046970.7,P
1540877135.5,286046970.8,Y
1540877155.3,286046999.6,P
1540877175.2,286046998.9,N
1540877195.0,286046999.6,N
1540877195.9,286046999.6,N
1540877215.7,286046997.3,N
1540877235.6,286046997.6,N
1540877255.4,286046997.9,N
1540877275.3,286046996.1,N
1540877295.1,286046990.3,N
1540877296.0,286046990.3,N
1540877315.8,286046989.6,N
1540877335.7,286046988.8,N
1540877355.5,286046992.3,N
1540877375.3,286046996.6,N
1540877395.2,286047000.9,N
1540877415.0,286047005.0,N
1540877415.9,286047005.0,N
1540877435.8,286047004.0,N
1540877455.6,286046999.2,N
1540877475.4,286046994.5,N
1540877495.3,286046990.3,N
1540877515.1,286047001.0,N
1540877535.8,286046999.5,N
1540877555.7,286046995.5,N
1540877575.5,286046990.7,N
1540877595.4,286046990.4,N
1540877615.2,286046986.0,N
1540877635.0,286046989.3,N
1540877635.9,286046989.3,N
1540877655.8,286046987.8,N
1540877675.6,286046984.9,N
1540877695.4,286046987.7,N
1540877715.3,286046986.3,N
1540877735.1,286046981.1,Y
1540877755.9,286046983.2,P
1540877775.7,286046981.9,P
1540877795.5,286046978.7,P
1540877815.4,286046973.3,Y
1540877835.2,286046992.5,P
1540877855.0,286046990.6,N
1540877855.9,286046990.6,N
1540877875.8,286046987.5,Y
1540877895.6,286046997.1,P
1540877915.5,286046996.8,N
1540877935.3,286047001.2,N
1540877955.1,286047000.1,N
1540877975.9,286047001.4,N
1540877995.7,286047005.8,N
1540878015.5,286047007.3,N
1540878035.4,286047005.5,N
1540878055.2,286047005.1,N
1540878075.1,286047005.4,N
1540878076.0,286047005.4,N
1540878095.8,286047005.9,N
1540878115.6,286047004.3,N
1540878135.5,286047001.1,N
1540878155.3,286046997.7,N
1540878175.1,286046995.2,N
1540878195.9,286046995.1,N
1540878215.7,286046996.7,N
1540878235.6,286046998.1,N
1540878255.4,286046996.8,N
1540878275.2,286046995.0,N
1540878295.1,286046991.8,N
1540878296.0,286046991.8,N
1540878315.8,286046992.8,N
1540878335.6,286046990.7,N
1540878355.5,286046990.8,N
1540878375.3,286046991.2,N
1540878395.2,286046990.7,N
1540878415.9,286046992.7,N
1540878435.7,286046990.2,N
1540878455.6,286046996.1,N
1540878475.4,286046994.3,N
1540878495.2,286046991.3,N
1540878515.1,286046990.6,N
1540878516.0,286046990.6,N
1540878535.8,286046994.1,N
1540878555.7,286046995.6,N
1540878575.5,286046995.0,N
1540878595.3,286046991.7,N
1540878615.2,286046993.5,N
1540878635.0,286046994.1,N
1540878635.9,286046994.1,N
1540878655.8,286046990.6,N
1540878675.6,286046991.1,Y
1540878695.4,286047001.1,P
1540878715.3,286046997.0,N
1540878735.1,286046995.2,N
1540878755.9,286046995.9,N
1540878775.7,286046996.9,N
1540878795.5,286046996.7,N
1540878815.4,286046994.1,N
1540878835.2,286046990.5,Y
1540878855.0,286046994.6,P
1540878856.0,286046994.6,P
1540878875.8,286046991.1,P
1540878895.6,286046995.1,N
1540878915.5,286047001.5,N
1540878935.3,286047000.6,N
1540878955.1,286046997.3,N
1540878975.9,286046993.4,N
1540878995.7,286046996.3,N
1540879015.6,286046996.3,N
1540879035.4,286046996.3,N
1540879055.2,286046994.8,N
1540879075.1,286046996.3,N
1540879076.0,286046996.3,N
1540879095.8,286046994.9,N
1540879115.6,286047000.2,N
1540879135.5,286047004.4,N
1540879155.3,286047003.3,N
1540879175.2,286047010.3,Y
1540879195.0,286047011.5,P
1540879195.9,286047011.5,N
